Terug naar catalogus

LATINSAT B

ActiefCommunicatieLEO
NORAD 27606·PAYLOAD·🇦🇷 Argentina

Gelanceerd Dec 20, 2002 vanaf Baikonur Cosmodrome

Loading…

Volgende Passages (komende 24 uur)

TLE

VersSource: Space-Track

Epoch: Sep 14, 2026, 22:25 UTC

1 27606U 02058B   26257.93411801  .00000502  00000-0  86910-4 0  9990
2 27606  64.5560 335.6270 0085627 252.4484 106.7251 14.77122000275350

Volg LATINSAT B in realtime met AllMySat

Download on the App Store